SCP
0 0 0 0 0 0 0 0 0 0 0 0 0 0 0 0 0 0 0 -0 0 0 0 0 0 -0 -0 -0 0 0 0 0 0 0 0 0 0 0
0 0 0 0 0 0 0 0 0 0 0 0 0 0 0 0 0 0 0 0 0 0 0 0 0 -0 -0 -0 0 0 0 0 0 0 0 0 0 0
0 0 0 0 0 -0 0 0 0 0 0 0 0 0 0 0 0 0 0 0 0 0 0 0 0 0 -0 -0 -0 0 0 0 0 0 0 0 0 0
0 0 0 0 0 0 0 0 0 0 0 0 0 0 0 0 0 0 0 0 0 0 0 0 0 0 -0 -0 0 0 0 0 0 0 0 0 0 0
0 0 0 0 0 0 0 0 0 0 0 0 0 0 0 0 0 0 0 0 0 0 0 0 0 0 0 0 -0 -0 0 0 0 0 0 0 0 0
0 0 0 0 0 0 0 0 0 0 0 0 0 0 0 0 0 0 0 0 0 0 0 0 0 0 0 0 0 0 0 0 0 0 0 0 0 0
0 0 0 0 0 0 0 0 0 0 0 0 0 0 0 0 0 0 0 0 0 0 0 0 0 0 0 0 0 0 0 0 0 0 0 0 0 0
0 0 0 0 0 0 0 -0 0 0 0 0 0 0 0 0 0 0 0 0 0 0 0 0 0 0 0 0 0 0 0 0 0 0 0 0 0 0
0 0 0 0 0 0 0 0 0 0 0 0 0 0 0 0 0 0 0 0 0 0 0 -0 -0 -0 0 0 0 0 0 0 0 0 0 0 0 0
0 0 0 0 0 0 0 0 0 0 0 0 0 0 0 0 0 0 0 0 0 -0 -0 -0 -0 -0 0 0 0 0 0 0 0 0 0 0 0 0
0 0 0 0 0 0 0 0 0 0 0 0 0 0 0 0 0 0 0 -0 -0 -0 -0 -0 -0 -0 0 0 0 0 0 0 0 0 0 0 0 0
0 0 0 0 0 0 0 0 0 0 0 0 0 0 0 0 0 0 -0 -0 -0 -0 0 -0 -0 -0 -0 0 0 0 0 0 -0 0 0 -0 -0 0
0 0 0 0 0 0 0 0 0 0 0 0 0 0 0 0 0 0 0 0 -0 0 -0 0 0 0 0 0 -0 -0 0 0 0 -0 -0 -0 0 0
0 0 0 0 0 0 0 0 0 0 0 -0 0 0 0 0 0 0 0 0 0 -0 -0 0 0 0 0 0 0 -0 -0 0 -0 -0 -0 0 0 -0
0 0 0 0 0 0 0 0 0 0 0 0 0 -0 -0 0 0 0 0 0 0 0 0 0 0 0 0 0 0 0 -0 0 -0 -0 0 -0 -0 0
0 0 0 0 0 0 0 0 0 0 0 0 -0 0 0 0 0 0 0 0 0 0 0 0 -0 -0 0 0 0 0 0 0 0 -0 -0 0 -0 -0
0 0 0 0 0 0 0 0 0 0 0 0 0 0 0 0 0 0 0 0 0 0 0 -0 -0 -0 0 0 0 0 -0 -0 -0 -0 -0 -0 -0 -0
0 0 0 0 0 0 0 0 0 0 0 0 0 0 0 0 0 0 0 0 0 0 0 0 0 0 0 0 0 0 0 0 0 0 0 0 0 0
0 0 0 0 0 0 0 0 0 0 0 0 0 0 0 0 0 0 0 0 0 0 0 0 0 0 0 0 0 0 0 0 0 0 0 0 0 0
0 0 0 0 0 0 0 0 0 0 0 0 0 0 0 0 0 0 0 0 0 0 0 0 0 0 0 0 0 0 0 0 0 0 0 0 0 -0
0 0 0 0 0 0 0 0 0 0 0 0 0 0 0 0 0 0 0 0 0 0 0 0 0 0 0 0 -0 0 0 0 0 0 0 -0 0 -0
0 0 -0 0 0 0 0 0 0 0 0 0 0 0 0 0 0 0 0 0 0 0 0 0 -0 0 0 0 0 0 -0 0 0 0 0 0 0 0
0 0 0 -0 0 0 0 0 0 0 0 0 0 0 0 0 0 0 0 0 0 0 0 -0 -0 0 0 0 0 0 0 0 0 0 0 -0 0 0
Wind_Speed_500mb
29 31 25 27 32 29 36 36 34 40 45 46 42 42 38 39 41 35 38 40 38 30 37 37 39 39 48 48 42 45 39 37 38 39 38 38 44 37
25 25 26 28 29 30 35 39 29 33 33 40 48 51 46 40 40 46 42 37 36 36 33 37 39 51 46 44 41 37 36 35 36 37 37 35 36 42
26 27 30 32 37 46 45 38 34 36 43 53 49 43 43 51 49 35 41 49 43 32 37 43 44 38 41 40 43 40 38 35 34 33 33 33 32 36
27 30 35 35 40 44 49 45 39 30 37 46 45 45 47 42 34 37 39 39 34 30 35 32 35 40 43 43 40 46 40 32 32 28 24 25 25 31
25 23 27 32 41 54 54 47 34 32 38 45 49 48 50 51 47 43 42 37 32 32 34 36 38 34 35 37 44 46 43 40 33 28 24 23 26 29
23 25 31 30 35 52 53 54 33 32 44 53 56 56 53 49 48 56 61 52 50 36 33 33 37 37 36 38 46 51 44 36 34 29 25 24 24 27
24 25 30 27 35 44 49 49 33 33 40 50 59 58 53 50 50 47 52 54 57 47 50 46 48 47 48 40 42 46 40 31 30 23 25 28 32 35
25 22 34 30 41 42 52 51 43 42 45 45 55 54 57 58 59 56 58 60 60 45 39 38 38 41 33 35 42 40 31 21 20 24 32 38 40 42
33 26 37 36 34 49 54 56 54 47 44 38 51 53 53 58 62 62 59 45 44 47 41 49 43 43 30 29 32 26 20 21 22 28 31 32 36 34
38 23 33 26 36 49 47 54 53 54 51 46 40 45 49 61 49 47 34 44 44 40 31 46 32 34 31 19 20 20 19 17 23 23 28 28 25 23
32 31 38 40 41 48 48 49 46 53 42 54 43 61 58 54 48 51 44 37 43 46 40 28 36 39 26 15 5 10 13 6 19 30 24 21 24 26
33 37 40 41 42 55 49 55 50 49 53 47 59 69 51 42 42 38 32 31 36 42 20 36 34 36 24 5 12 26 12 25 27 25 27 32 29 34
46 40 38 40 56 45 41 43 44 42 57 51 77 54 53 41 40 32 24 23 26 28 31 31 38 38 25 37 34 27 31 31 33 32 28 37 39 33
47 46 42 46 49 39 29 36 34 53 51 65 68 54 48 45 36 33 25 21 24 30 31 22 31 32 28 35 37 33 29 32 37 40 26 22 24 33
38 34 34 35 35 42 37 28 48 58 56 80 61 54 46 40 36 30 26 21 23 16 13 24 29 22 25 28 33 35 34 36 27 18 21 29 27 21
33 30 29 31 30 39 35 42 55 49 58 78 54 50 44 38 36 33 31 26 31 27 21 22 28 31 36 32 30 31 30 21 24 24 26 30 15 17
32 29 28 37 39 47 45 45 43 49 71 58 47 45 42 35 37 31 27 29 33 34 33 34 30 28 17 16 14 17 19 16 18 16 21 19 8 10
30 24 32 38 43 48 40 39 53 72 56 51 47 38 39 36 32 29 30 34 36 29 27 26 25 24 22 20 12 20 21 20 18 15 15 19 14 13
30 31 38 40 47 37 43 60 73 50 49 44 40 38 36 38 36 34 36 33 30 23 21 24 29 31 31 32 22 30 32 21 21 22 21 16 16 13
25 32 38 43 40 45 58 70 45 43 43 39 42 39 37 37 37 36 32 32 31 30 29 24 26 26 29 28 29 26 22 22 13 19 20 17 9 9
35 40 43 40 46 57 66 46 41 44 41 39 37 36 37 39 39 36 35 29 33 39 39 34 20 25 33 24 22 30 24 21 18 20 20 25 16 4
36 38 39 47 61 60 49 41 36 37 35 40 38 39 41 42 43 43 42 41 44 36 33 30 27 26 27 26 29 21 28 17 13 12 13 23 14 20
36 36 43 59 65 48 41 35 34 36 37 43 44 36 44 35 36 34 40 41 36 39 38 17 28 28 27 25 25 28 23 21 21 16 10 14 18 15
Wind_Direction_500mb
23 18 17 15 360 356 355 359 10 358 335 329 343 335 339 328 331 325 315 320 316 315 315 304 310 318 326 321 317 318 310 287 284 280 273 266 250 246
11 12 7 357 348 347 340 333 333 346 337 317 317 324 322 328 324 316 309 312 311 303 309 314 312 313 313 320 317 317 311 301 288 281 274 269 262 247
7 358 352 358 355 351 349 349 343 332 328 310 316 319 338 335 326 319 308 309 305 291 305 309 313 308 316 322 322 317 304 301 297 286 273 266 261 242
360 3 1 354 358 2 359 354 343 345 344 335 330 336 338 342 332 321 322 327 303 292 294 303 309 309 306 303 313 312 304 294 300 290 282 270 253 246
16 359 356 357 11 10 360 355 350 344 348 346 339 334 328 328 326 330 329 324 315 303 294 291 297 302 312 305 304 305 292 286 292 284 277 270 257 257
359 359 351 343 356 1 4 1 351 352 355 349 341 334 329 327 325 327 325 324 327 313 304 293 292 289 293 296 296 302 295 285 279 271 267 264 261 258
330 342 337 331 338 347 358 1 352 343 340 341 340 338 336 339 338 328 318 319 318 312 307 296 293 290 289 280 292 297 300 280 281 253 265 269 268 262
344 314 336 317 324 338 349 355 353 339 332 334 338 334 327 327 325 319 314 311 320 331 321 310 308 301 292 285 292 300 295 259 273 264 272 274 272 273
340 333 328 314 334 341 339 344 344 348 343 330 329 330 323 327 322 313 310 302 311 317 312 306 312 310 301 300 285 292 275 264 265 278 281 278 274 273
353 330 338 307 303 341 336 339 341 341 338 339 320 323 318 320 310 314 316 309 302 319 314 312 325 319 311 298 274 275 272 250 277 286 297 277 274 266
339 349 340 328 339 335 327 328 336 337 328 331 333 329 323 322 316 308 300 307 317 317 318 317 323 327 339 357 314 336 286 317 299 292 296 268 271 274
336 341 338 331 335 337 331 323 334 331 338 335 333 334 325 330 329 332 327 322 309 322 316 323 325 335 324 351 326 319 300 310 308 302 279 269 262 282
324 326 332 323 322 322 331 345 329 330 334 331 334 337 346 346 344 345 336 323 314 310 321 321 312 315 299 309 300 301 299 295 295 301 283 273 281 269
314 314 317 334 345 338 327 324 321 331 334 337 347 348 349 349 350 344 335 327 315 311 318 308 322 303 306 313 308 315 315 296 304 310 287 265 273 290
333 330 333 348 343 356 355 333 332 332 335 347 349 349 350 346 349 343 350 346 330 355 329 327 330 327 308 299 305 310 311 305 306 292 288 292 289 278
353 358 7 3 353 353 359 339 339 334 335 343 345 346 354 357 359 358 359 352 346 353 355 329 320 311 308 295 297 307 312 313 317 310 296 291 271 287
353 14 12 357 2 0 356 343 341 333 337 346 346 345 353 354 357 2 357 356 351 344 337 330 330 338 333 327 321 323 328 322 331 328 335 324 246 327
18 17 358 0 2 358 357 349 340 339 348 349 348 353 354 0 3 356 359 354 354 341 346 3 5 13 16 20 358 346 350 352 346 348 353 342 320 304
24 3 2 6 3 1 347 341 339 349 351 354 359 1 356 353 353 351 359 5 1 10 8 9 359 357 357 350 350 351 343 350 352 353 344 324 321 309
26 13 13 3 356 345 344 340 357 355 356 2 2 5 3 10 6 3 359 357 354 359 358 0 352 348 333 339 332 339 350 339 339 338 360 1 332 335
12 10 5 2 345 341 341 356 355 359 3 8 10 15 11 9 4 2 360 4 356 347 342 342 353 358 332 335 4 352 351 355 345 345 349 2 8 294
9 14 0 351 343 348 353 354 2 9 8 11 12 8 3 6 2 356 356 351 357 358 352 22 12 0 360 351 344 345 348 357 348 334 339 1 18 8
16 8 356 350 356 6 11 18 22 22 21 13 11 20 7 19 15 7 10 11 8 5 357 22 28 14 8 7 3 6 3 358 14 18 21 25 23 8
Wind_Speed_850mb
29 31 25 27 32 29 36 36 34 40 45 46 42 42 38 39 41 35 38 40 38 30 37 37 39 39 48 48 42 45 39 37 38 39 38 38 44 37
25 25 26 28 29 30 35 39 29 33 33 40 48 51 46 40 40 46 42 37 36 36 33 37 39 51 46 44 41 37 36 35 36 37 37 35 36 42
26 27 30 32 37 46 45 38 34 36 43 53 49 43 43 51 49 35 41 49 43 32 37 43 44 38 41 40 43 40 38 35 34 33 33 33 32 36
27 30 35 35 40 44 49 45 39 30 37 46 45 45 47 42 34 37 39 39 34 30 35 32 35 40 43 43 40 46 40 32 32 28 24 25 25 31
25 23 27 32 41 54 54 47 34 32 38 45 49 48 50 51 47 43 42 37 32 32 34 36 38 34 35 37 44 46 43 40 33 28 24 23 26 29
23 25 31 30 35 52 53 54 33 32 44 53 56 56 53 49 48 56 61 52 50 36 33 33 37 37 36 38 46 51 44 36 34 29 25 24 24 27
24 25 30 27 35 44 49 49 33 33 40 50 59 58 53 50 50 47 52 54 57 47 50 46 48 47 48 40 42 46 40 31 30 23 25 28 32 35
25 22 34 30 41 42 52 51 43 42 45 45 55 54 57 58 59 56 58 60 60 45 39 38 38 41 33 35 42 40 31 21 20 24 32 38 40 42
33 26 37 36 34 49 54 56 54 47 44 38 51 53 53 58 62 62 59 45 44 47 41 49 43 43 30 29 32 26 20 21 22 28 31 32 36 34
38 23 33 26 36 49 47 54 53 54 51 46 40 45 49 61 49 47 34 44 44 40 31 46 32 34 31 19 20 20 19 17 23 23 28 28 25 23
32 31 38 40 41 48 48 49 46 53 42 54 43 61 58 54 48 51 44 37 43 46 40 28 36 39 26 15 5 10 13 6 19 30 24 21 24 26
33 37 40 41 42 55 49 55 50 49 53 47 59 69 51 42 42 38 32 31 36 42 20 36 34 36 24 5 12 26 12 25 27 25 27 32 29 34
46 40 38 40 56 45 41 43 44 42 57 51 77 54 53 41 40 32 24 23 26 28 31 31 38 38 25 37 34 27 31 31 33 32 28 37 39 33
47 46 42 46 49 39 29 36 34 53 51 65 68 54 48 45 36 33 25 21 24 30 31 22 31 32 28 35 37 33 29 32 37 40 26 22 24 33
38 34 34 35 35 42 37 28 48 58 56 80 61 54 46 40 36 30 26 21 23 16 13 24 29 22 25 28 33 35 34 36 27 18 21 29 27 21
33 30 29 31 30 39 35 42 55 49 58 78 54 50 44 38 36 33 31 26 31 27 21 22 28 31 36 32 30 31 30 21 24 24 26 30 15 17
32 29 28 37 39 47 45 45 43 49 71 58 47 45 42 35 37 31 27 29 33 34 33 34 30 28 17 16 14 17 19 16 18 16 21 19 8 10
30 24 32 38 43 48 40 39 53 72 56 51 47 38 39 36 32 29 30 34 36 29 27 26 25 24 22 20 12 20 21 20 18 15 15 19 14 13
30 31 38 40 47 37 43 60 73 50 49 44 40 38 36 38 36 34 36 33 30 23 21 24 29 31 31 32 22 30 32 21 21 22 21 16 16 13
25 32 38 43 40 45 58 70 45 43 43 39 42 39 37 37 37 36 32 32 31 30 29 24 26 26 29 28 29 26 22 22 13 19 20 17 9 9
35 40 43 40 46 57 66 46 41 44 41 39 37 36 37 39 39 36 35 29 33 39 39 34 20 25 33 24 22 30 24 21 18 20 20 25 16 4
36 38 39 47 61 60 49 41 36 37 35 40 38 39 41 42 43 43 42 41 44 36 33 30 27 26 27 26 29 21 28 17 13 12 13 23 14 20
36 36 43 59 65 48 41 35 34 36 37 43 44 36 44 35 36 34 40 41 36 39 38 17 28 28 27 25 25 28 23 21 21 16 10 14 18 15
Wind_Direction_850mb
23 18 17 15 360 356 355 359 10 358 335 329 343 335 339 328 331 325 315 320 316 315 315 304 310 318 326 321 317 318 310 287 284 280 273 266 250 246
11 12 7 357 348 347 340 333 333 346 337 317 317 324 322 328 324 316 309 312 311 303 309 314 312 313 313 320 317 317 311 301 288 281 274 269 262 247
7 358 352 358 355 351 349 349 343 332 328 310 316 319 338 335 326 319 308 309 305 291 305 309 313 308 316 322 322 317 304 301 297 286 273 266 261 242
360 3 1 354 358 2 359 354 343 345 344 335 330 336 338 342 332 321 322 327 303 292 294 303 309 309 306 303 313 312 304 294 300 290 282 270 253 246
16 359 356 357 11 10 360 355 350 344 348 346 339 334 328 328 326 330 329 324 315 303 294 291 297 302 312 305 304 305 292 286 292 284 277 270 257 257
359 359 351 343 356 1 4 1 351 352 355 349 341 334 329 327 325 327 325 324 327 313 304 293 292 289 293 296 296 302 295 285 279 271 267 264 261 258
330 342 337 331 338 347 358 1 352 343 340 341 340 338 336 339 338 328 318 319 318 312 307 296 293 290 289 280 292 297 300 280 281 253 265 269 268 262
344 314 336 317 324 338 349 355 353 339 332 334 338 334 327 327 325 319 314 311 320 331 321 310 308 301 292 285 292 300 295 259 273 264 272 274 272 273
340 333 328 314 334 341 339 344 344 348 343 330 329 330 323 327 322 313 310 302 311 317 312 306 312 310 301 300 285 292 275 264 265 278 281 278 274 273
353 330 338 307 303 341 336 339 341 341 338 339 320 323 318 320 310 314 316 309 302 319 314 312 325 319 311 298 274 275 272 250 277 286 297 277 274 266
339 349 340 328 339 335 327 328 336 337 328 331 333 329 323 322 316 308 300 307 317 317 318 317 323 327 339 357 314 336 286 317 299 292 296 268 271 274
336 341 338 331 335 337 331 323 334 331 338 335 333 334 325 330 329 332 327 322 309 322 316 323 325 335 324 351 326 319 300 310 308 302 279 269 262 282
324 326 332 323 322 322 331 345 329 330 334 331 334 337 346 346 344 345 336 323 314 310 321 321 312 315 299 309 300 301 299 295 295 301 283 273 281 269
314 314 317 334 345 338 327 324 321 331 334 337 347 348 349 349 350 344 335 327 315 311 318 308 322 303 306 313 308 315 315 296 304 310 287 265 273 290
333 330 333 348 343 356 355 333 332 332 335 347 349 349 350 346 349 343 350 346 330 355 329 327 330 327 308 299 305 310 311 305 306 292 288 292 289 278
353 358 7 3 353 353 359 339 339 334 335 343 345 346 354 357 359 358 359 352 346 353 355 329 320 311 308 295 297 307 312 313 317 310 296 291 271 287
353 14 12 357 2 0 356 343 341 333 337 346 346 345 353 354 357 2 357 356 351 344 337 330 330 338 333 327 321 323 328 322 331 328 335 324 246 327
18 17 358 0 2 358 357 349 340 339 348 349 348 353 354 0 3 356 359 354 354 341 346 3 5 13 16 20 358 346 350 352 346 348 353 342 320 304
24 3 2 6 3 1 347 341 339 349 351 354 359 1 356 353 353 351 359 5 1 10 8 9 359 357 357 350 350 351 343 350 352 353 344 324 321 309
26 13 13 3 356 345 344 340 357 355 356 2 2 5 3 10 6 3 359 357 354 359 358 0 352 348 333 339 332 339 350 339 339 338 360 1 332 335
12 10 5 2 345 341 341 356 355 359 3 8 10 15 11 9 4 2 360 4 356 347 342 342 353 358 332 335 4 352 351 355 345 345 349 2 8 294
9 14 0 351 343 348 353 354 2 9 8 11 12 8 3 6 2 356 356 351 357 358 352 22 12 0 360 351 344 345 348 357 348 334 339 1 18 8
16 8 356 350 356 6 11 18 22 22 21 13 11 20 7 19 15 7 10 11 8 5 357 22 28 14 8 7 3 6 3 358 14 18 21 25 23 8